GBGIY EGPC-EGGP

Flight info

Callsign GBGIY
Flight time N/A
Altitude 28000
Route RIMOL DCT NESDI/N0272F240 N560 GOW/N0273F250 L612 LAKEY
Aircraft SF50/L-BDGRSWY/LB2U2

Departure

Time 2026-05-07 18:35
Airport Wick John O'Groats Airport (EGPC)

Arrival

Time N/A
Airport Liverpool John Lennon Airport (EGGP)
Time Latitude Longitude Altitude Speed Heading
2026-05-07 18:26 58.45412 -3.08803 131 ft 0 kts 294°
2026-05-07 18:32 58.45416 -3.08800 131 ft 3 kts 102°
2026-05-07 18:32 58.45444 -3.08770 131 ft 12 kts 337°
2026-05-07 18:32 58.45532 -3.08703 131 ft 14 kts 49°
2026-05-07 18:33 58.45585 -3.08590 132 ft 11 kts 360°
2026-05-07 18:33 58.45644 -3.08710 133 ft 18 kts 305°
2026-05-07 18:33 58.45737 -3.08966 132 ft 29 kts 306°
2026-05-07 18:33 58.45900 -3.09376 127 ft 35 kts 304°
2026-05-07 18:34 58.46039 -3.09757 130 ft 35 kts 307°
2026-05-07 18:34 58.46169 -3.10081 130 ft 25 kts 307°
2026-05-07 18:34 58.46221 -3.10170 127 ft 8 kts 127°
2026-05-07 18:34 58.46194 -3.10101 129 ft 14 kts 125°
2026-05-07 18:35 58.46000 -3.09608 129 ft 78 kts 127°
2026-05-07 18:35 58.45616 -3.08586 401 ft 101 kts 130°
2026-05-07 18:35 58.45198 -3.07339 692 ft 127 kts 129°
2026-05-07 18:35 58.44574 -3.05964 1001 ft 147 kts 152°
2026-05-07 18:36 58.43667 -3.05200 1708 ft 141 kts 176°
2026-05-07 18:36 58.42746 -3.05734 2285 ft 142 kts 212°
2026-05-07 18:36 58.41912 -3.06733 2982 ft 140 kts 210°
2026-05-07 18:36 58.41070 -3.07659 3611 ft 143 kts 211°
2026-05-07 18:37 58.40202 -3.08645 4248 ft 145 kts 211°
2026-05-07 18:37 58.39345 -3.09620 4964 ft 143 kts 212°
2026-05-07 18:37 58.38485 -3.10605 5589 ft 146 kts 210°
2026-05-07 18:37 58.37602 -3.11613 6210 ft 149 kts 210°
2026-05-07 18:38 58.36679 -3.12669 6613 ft 165 kts 211°
2026-05-07 18:38 58.35679 -3.13809 7143 ft 168 kts 211°
2026-05-07 18:38 58.34673 -3.14953 7747 ft 169 kts 211°
2026-05-07 18:38 58.33656 -3.16112 8327 ft 172 kts 211°
2026-05-07 18:39 58.32619 -3.17286 8914 ft 174 kts 212°
2026-05-07 18:39 58.31583 -3.18470 9429 ft 181 kts 212°
2026-05-07 18:39 58.30435 -3.19775 9561 ft 202 kts 212°
2026-05-07 18:39 58.29226 -3.21148 10041 ft 202 kts 212°
2026-05-07 18:40 58.28019 -3.22518 10491 ft 203 kts 212°
2026-05-07 18:40 58.26803 -3.23895 10931 ft 204 kts 212°
2026-05-07 18:40 58.25586 -3.25271 11372 ft 204 kts 212°
2026-05-07 18:40 58.24359 -3.26658 11774 ft 206 kts 212°
2026-05-07 18:41 58.23130 -3.28049 12175 ft 206 kts 212°
2026-05-07 18:41 58.21895 -3.29443 12561 ft 207 kts 212°
2026-05-07 18:41 58.20655 -3.30843 12944 ft 208 kts 212°
2026-05-07 18:41 58.19407 -3.32253 13309 ft 209 kts 212°
2026-05-07 18:42 58.18157 -3.33661 13654 ft 210 kts 212°
2026-05-07 18:42 58.17324 -3.34600 13853 ft 210 kts 212°
2026-05-07 18:42 58.16066 -3.36018 14146 ft 211 kts 212°
2026-05-07 18:42 58.14797 -3.37442 14402 ft 212 kts 211°
2026-05-07 18:43 58.13524 -3.38873 14674 ft 213 kts 211°
2026-05-07 18:43 58.12246 -3.40305 14936 ft 214 kts 211°
2026-05-07 18:43 58.10967 -3.41741 15187 ft 214 kts 211°
2026-05-07 18:43 58.09680 -3.43180 15433 ft 215 kts 211°
2026-05-07 18:44 58.08393 -3.44623 15663 ft 216 kts 211°
2026-05-07 18:44 58.07100 -3.46072 15885 ft 216 kts 211°
2026-05-07 18:44 58.05802 -3.47522 16109 ft 217 kts 211°
2026-05-07 18:44 58.04503 -3.48975 16322 ft 217 kts 211°
2026-05-07 18:45 58.03201 -3.50428 16526 ft 218 kts 211°
2026-05-07 18:45 58.01895 -3.51883 16722 ft 218 kts 211°
2026-05-07 18:45 58.00585 -3.53342 16909 ft 219 kts 211°
2026-05-07 18:45 57.99270 -3.54804 17086 ft 219 kts 211°
2026-05-07 18:46 57.97953 -3.56270 17265 ft 220 kts 211°
2026-05-07 18:46 57.96633 -3.57733 17445 ft 220 kts 211°
2026-05-07 18:46 57.95328 -3.59184 17616 ft 221 kts 211°
2026-05-07 18:46 57.94003 -3.60652 17798 ft 221 kts 211°
2026-05-07 18:47 57.92674 -3.62128 17978 ft 222 kts 211°
2026-05-07 18:47 57.91343 -3.63601 18151 ft 222 kts 211°
2026-05-07 18:47 57.90008 -3.65080 18304 ft 223 kts 211°
2026-05-07 18:47 57.88712 -3.66512 18861 ft 204 kts 211°
2026-05-07 18:48 57.87562 -3.67780 19660 ft 181 kts 211°
2026-05-07 18:48 57.86477 -3.68978 19993 ft 183 kts 211°
2026-05-07 18:48 57.85370 -3.70196 20324 ft 185 kts 211°
2026-05-07 18:48 57.84260 -3.71420 20677 ft 185 kts 211°
2026-05-07 18:49 57.83145 -3.72645 21045 ft 185 kts 211°
2026-05-07 18:49 57.82040 -3.73862 21425 ft 184 kts 211°
2026-05-07 18:49 57.80938 -3.75074 21793 ft 183 kts 211°
2026-05-07 18:49 57.79844 -3.76277 22170 ft 182 kts 211°
2026-05-07 18:50 57.78751 -3.77478 22547 ft 182 kts 211°
2026-05-07 18:50 57.77661 -3.78675 22920 ft 181 kts 211°
2026-05-07 18:50 57.76575 -3.79868 23303 ft 180 kts 211°
2026-05-07 18:50 57.75496 -3.81050 23643 ft 179 kts 211°
2026-05-07 18:51 57.74439 -3.82208 23967 ft 178 kts 210°
2026-05-07 18:51 57.73370 -3.83375 24288 ft 177 kts 210°
2026-05-07 18:51 57.72308 -3.84537 24613 ft 176 kts 210°
2026-05-07 18:51 57.71253 -3.85688 24939 ft 175 kts 210°
2026-05-07 18:52 57.70204 -3.86834 25264 ft 174 kts 210°
2026-05-07 18:52 57.69161 -3.87969 25581 ft 173 kts 210°
2026-05-07 18:52 57.68125 -3.89099 25903 ft 172 kts 210°
2026-05-07 18:52 57.67095 -3.90222 26224 ft 171 kts 210°
2026-05-07 18:53 57.66070 -3.91339 26544 ft 170 kts 210°
2026-05-07 18:53 57.65050 -3.92450 26873 ft 169 kts 210°
2026-05-07 18:53 57.64035 -3.93556 27193 ft 168 kts 210°
2026-05-07 18:53 57.63027 -3.94652 27506 ft 167 kts 210°
2026-05-07 18:54 57.62026 -3.95741 27820 ft 166 kts 210°
2026-05-07 18:54 57.61028 -3.96825 28130 ft 165 kts 210°
2026-05-07 18:54 57.60035 -3.97902 28440 ft 164 kts 210°
2026-05-07 18:54 57.59048 -3.98972 28743 ft 164 kts 210°
2026-05-07 18:55 57.58063 -4.00039 29000 ft 164 kts 209°
2026-05-07 18:55 57.57078 -4.01102 29298 ft 163 kts 209°
2026-05-07 18:55 57.56113 -4.02147 29601 ft 162 kts 209°
2026-05-07 18:55 57.55137 -4.03195 29895 ft 161 kts 208°
2026-05-07 18:56 57.54103 -4.03998 30142 ft 161 kts 199°
2026-05-07 18:56 57.53011 -4.04466 30385 ft 162 kts 192°
2026-05-07 18:56 57.51894 -4.04726 30614 ft 161 kts 192°
2026-05-07 18:56 57.50786 -4.05020 30840 ft 161 kts 192°
2026-05-07 18:57 57.49642 -4.05318 30858 ft 171 kts 192°
2026-05-07 18:57 57.48432 -4.05626 30864 ft 180 kts 192°
2026-05-07 18:57 57.47169 -4.05945 30868 ft 187 kts 192°
2026-05-07 18:57 57.45858 -4.06276 30864 ft 193 kts 191°
2026-05-07 18:58 57.44507 -4.06617 30867 ft 199 kts 191°
2026-05-07 18:58 57.43117 -4.06967 30863 ft 204 kts 191°
2026-05-07 18:58 57.41689 -4.07325 30866 ft 210 kts 191°
2026-05-07 18:58 57.40225 -4.07693 30866 ft 215 kts 191°
2026-05-07 18:59 57.38739 -4.08065 30864 ft 221 kts 191°
2026-05-07 18:59 57.37201 -4.08449 30864 ft 225 kts 191°
2026-05-07 18:59 57.35632 -4.08843 30867 ft 229 kts 191°
2026-05-07 18:59 57.34038 -4.09240 30864 ft 233 kts 191°
2026-05-07 19:00 57.32417 -4.09643 30866 ft 236 kts 191°
2026-05-07 19:00 57.30784 -4.10051 30851 ft 238 kts 190°
2026-05-07 19:00 57.29133 -4.10462 30855 ft 241 kts 190°
2026-05-07 19:00 57.27467 -4.10876 30862 ft 243 kts 190°
2026-05-07 19:01 57.25781 -4.11297 30865 ft 245 kts 190°
2026-05-07 19:01 57.24089 -4.11720 30870 ft 247 kts 190°
2026-05-07 19:01 57.22380 -4.12146 30867 ft 248 kts 190°
2026-05-07 19:01 57.20665 -4.12574 30868 ft 249 kts 189°
2026-05-07 19:02 57.18962 -4.12993 30888 ft 250 kts 189°
2026-05-07 19:02 57.17231 -4.13424 30886 ft 252 kts 189°
2026-05-07 19:02 57.15486 -4.13856 30886 ft 253 kts 189°
2026-05-07 19:02 57.13740 -4.14287 30916 ft 253 kts 190°
2026-05-07 19:03 57.11992 -4.14719 30885 ft 254 kts 190°
2026-05-07 19:03 57.10237 -4.15152 30886 ft 254 kts 190°
2026-05-07 19:03 57.08482 -4.15583 30894 ft 254 kts 190°
2026-05-07 19:03 57.06728 -4.16018 30893 ft 254 kts 190°
2026-05-07 19:04 57.04973 -4.16448 30896 ft 253 kts 190°
2026-05-07 19:04 57.03226 -4.16876 30879 ft 253 kts 189°
2026-05-07 19:04 57.01484 -4.17305 30883 ft 252 kts 189°
2026-05-07 19:04 56.99745 -4.17734 30882 ft 252 kts 189°
2026-05-07 19:05 56.98005 -4.18162 30886 ft 252 kts 189°
2026-05-07 19:05 56.96268 -4.18584 30886 ft 252 kts 189°
2026-05-07 19:05 56.94530 -4.19012 30885 ft 252 kts 189°
2026-05-07 19:05 56.92794 -4.19437 30885 ft 252 kts 189°
2026-05-07 19:06 56.91060 -4.19861 30887 ft 251 kts 189°
2026-05-07 19:06 56.87607 -4.20706 30895 ft 253 kts 189°
2026-05-07 19:06 56.85834 -4.21137 30897 ft 254 kts 189°
2026-05-07 19:07 56.84098 -4.21559 30897 ft 256 kts 189°
2026-05-07 19:07 56.82310 -4.21996 30896 ft 255 kts 189°
2026-05-07 19:07 56.80583 -4.22411 30896 ft 252 kts 189°
2026-05-07 19:07 56.78848 -4.22831 30893 ft 251 kts 189°
2026-05-07 19:08 56.77104 -4.23256 30891 ft 253 kts 189°
2026-05-07 19:08 56.75360 -4.23677 30896 ft 253 kts 189°
2026-05-07 19:08 56.73608 -4.24101 30900 ft 255 kts 189°
2026-05-07 19:08 56.71844 -4.24528 30902 ft 256 kts 189°
2026-05-07 19:09 56.70074 -4.24957 30908 ft 258 kts 189°
2026-05-07 19:09 56.68296 -4.25387 30909 ft 257 kts 189°
2026-05-07 19:09 56.66522 -4.25815 30908 ft 256 kts 189°
2026-05-07 19:09 56.64760 -4.26236 30912 ft 254 kts 189°
2026-05-07 19:10 56.63009 -4.26660 30915 ft 253 kts 189°
2026-05-07 19:10 56.61265 -4.27082 30916 ft 253 kts 189°
2026-05-07 19:10 56.59517 -4.27502 30913 ft 254 kts 189°
2026-05-07 19:10 56.57777 -4.27920 30912 ft 256 kts 189°
2026-05-07 19:11 56.55986 -4.28348 30916 ft 257 kts 189°
2026-05-07 19:11 56.54213 -4.28770 30917 ft 257 kts 189°
2026-05-07 19:11 56.52461 -4.29192 30916 ft 258 kts 189°
2026-05-07 19:11 56.50682 -4.29617 30918 ft 258 kts 189°
2026-05-07 19:12 56.48904 -4.30039 30911 ft 258 kts 188°
2026-05-07 19:12 56.47115 -4.30467 30909 ft 259 kts 188°
2026-05-07 19:12 56.45333 -4.30892 30909 ft 259 kts 189°
2026-05-07 19:12 56.43548 -4.31315 30914 ft 259 kts 189°
2026-05-07 19:13 56.41758 -4.31743 30917 ft 259 kts 188°
2026-05-07 19:13 56.39976 -4.32169 30919 ft 258 kts 189°
2026-05-07 19:13 56.38196 -4.32590 30921 ft 258 kts 188°
2026-05-07 19:13 56.36445 -4.33005 30922 ft 257 kts 189°
2026-05-07 19:14 56.34674 -4.33428 30919 ft 257 kts 189°
2026-05-07 19:14 56.32904 -4.33848 30922 ft 256 kts 188°
2026-05-07 19:14 56.31137 -4.34264 30921 ft 256 kts 188°